Location: Falniów
(50.3639°N, 19.9642°E)
Time: 18:30:35
(UTC+00:00)

Cosmos 44 - Pass Details

Date: 18 January 2026
Orbit: 570 x 780 km, 65.1° (Epoch: 18 February)

Event Time Altitude Azimuth Distance (km) Brightness Sun altitude
Exits shadow 04:08:46 51° 294° (WNW) 969 3.6 -22.2°
Maximum altitude 04:09:58 68° 235° (SW) 837 3.4 -22.0°
Drops below altitude 10° 04:15:18 10° 153° (SSE) 2,327 6.4 -21.2°
Sets 04:17:43 0° 151° (SSE) 3,245 7.3 -20.8°
